FW7181 Weather Reports


Display with metric or nautical units.
time (UTC)temp
F
wind
direction
speed
MPH
gust
MPH
rain 1hr
in
rain 24hr
in
rain mn
in
humidity
%
barometer
mb
20260507174332 54 23 7.0 8.0 0.00 0.00 0.00 41 1009.9
20260507173829 56 298 3.0 5.0 0.00 0.00 0.00 41 1010.0
20260507173326 57 84 4.0 6.0 0.00 0.00 0.00 43 1010.4
20260507172822 54 280 4.0 5.0 0.00 0.00 0.00 43 1010.3
20260507172319 56 153 7.0 9.0 0.00 0.00 0.00 43 1010.2
20260507171815 54 19 1.0 2.0 0.00 0.00 0.00 43 1010.4
20260507171312 54 73 5.0 6.0 0.00 0.00 0.00 44 1010.4
20260507170809 55 208 5.0 8.0 0.00 0.00 0.00 45 1010.6
20260507170305 54 161 6.0 8.0 0.00 0.00 0.00 44 1010.1
20260507165801 53 46 5.0 7.0 0.00 0.00 0.00 42 1010.4
20260507165257 54 215 10.0 15.0 0.00 0.00 0.00 43 1010.7
20260507164754 56 324 7.0 10.0 0.00 0.00 0.00 46 1010.7
20260507164251 55 222 3.0 6.0 0.00 0.00 0.00 46 1010.7
20260507163748 53 53 3.0 5.0 0.00 0.00 0.00 47 1010.8
20260507163246 53 20 4.0 5.0 0.00 0.00 0.00 45 1010.8
20260507162741 54 223 1.0 1.0 0.00 0.00 0.00 46 1010.8
20260507162237 54 251 3.0 3.0 0.00 0.00 0.00 44 1011.0
20260507161735 53 352 4.0 5.0 0.00 0.00 0.00 48 1010.8
20260507161231 53 337 7.0 9.0 0.00 0.00 0.00 46 1011.0
20260507160727 53 14 4.0 6.0 0.00 0.00 0.00 44 1011.2
20260507160223 53 1 7.0 8.0 0.00 0.00 0.00 44 1011.2
20260507155719 53 277 5.0 8.0 0.00 0.00 0.00 43 1011.2
20260507155215 53 42 2.0 3.0 0.00 0.00 0.00 45 1011.2
20260507154712 53 65 1.0 1.0 0.00 0.00 0.00 45 1011.1
20260507154210 52 41 6.0 7.0 0.00 0.00 0.00 46 1011.2
20260507153707 52 54 1.0 2.0 0.00 0.00 0.00 45 1011.4
20260507153203 53 20 7.0 9.0 0.00 0.00 0.00 44 1011.6
20260507152659 53 12 3.0 3.0 0.00 0.00 0.00 55 1011.5
20260507152155 52 189 4.0 5.0 0.00 0.00 0.00 51 1011.4
20260507151652 51 176 3.0 3.0 0.00 0.00 0.00 49 1011.8
20260507151148 52 260 4.0 8.0 0.00 0.00 0.00 52 1011.7
20260507150646 52 173 8.0 10.0 0.00 0.00 0.00 49 1011.8
20260507150142 52 216 2.0 2.0 0.00 0.00 0.00 50 1011.8
20260507145637 53 196 2.0 2.0 0.00 0.00 0.00 51 1012.0
20260507145135 52 163 2.0 2.0 0.00 0.00 0.00 51 1011.9
20260507144631 50 344 5.0 6.0 0.00 0.00 0.00 52 1011.9
20260507144130 50 285 5.0 5.0 0.00 0.00 0.00 52 1012.2
20260507143626 52 204 1.0 1.0 0.00 0.00 0.00 55 1012.1
20260507143123 52 195 2.0 5.0 0.00 0.00 0.00 48 1012.2
20260507142619 51 170 3.0 5.0 0.00 0.00 0.00 53 1012.1
20260507142116 51 172 5.0 6.0 0.00 0.00 0.00 52 1012.2
20260507141612 50 187 9.0 10.0 0.00 0.00 0.00 56 1012.4
20260507141109 50 173 5.0 7.0 0.00 0.00 0.00 57 1012.2
20260507140605 50 254 5.0 8.0 0.00 0.00 0.00 54 1012.5
20260507135600 49 188 3.0 3.0 0.00 0.00 0.00 58 1012.5
20260507135057 49 182 2.0 2.0 0.00 0.00 0.00 60 1012.4
20260507134553 48 157 3.0 3.0 0.00 0.00 0.00 58 1012.6
20260507134049 48 213 5.0 6.0 0.00 0.00 0.00 58 1012.7
20260507133546 48 195 2.0 2.0 0.00 0.00 0.00 59 1012.5
20260507133044 47 243 3.0 3.0 0.00 0.00 0.00 60 1012.8
20260507132540 46 30 1.0 1.0 0.00 0.00 0.00 58 1012.5
20260507132036 46 191 11.0 13.0 0.00 0.00 0.00 59 1012.7
20260507131533 46 180 5.0 6.0 0.00 0.00 0.00 64 1012.7
20260507131031 45 161 2.0 2.0 0.00 0.00 0.00 64 1012.8
20260507130527 44 191 0.0 1.0 0.00 0.00 0.00 66 1012.6
20260507130026 44 200 4.0 5.0 0.00 0.00 0.00 68 1012.8
20260507125524 44 185 3.0 5.0 0.00 0.00 0.00 69 1012.8
20260507125021 43 195 2.0 3.0 0.00 0.00 0.00 74 1012.7
20260507124517 42 194 1.0 2.0 0.00 0.00 0.00 76 1012.7
20260507124016 42 182 2.0 2.0 0.00 0.00 0.00 77 1012.8
20260507123513 41 167 3.0 3.0 0.00 0.00 0.00 79 1012.8
20260507123010 41 170 3.0 3.0 0.00 0.00 0.00 80 1013.1
20260507122504 41 184 3.0 3.0 0.00 0.00 0.00 81 1012.8
20260507122001 40 108 1.0 1.0 0.00 0.00 0.00 86 1012.8
20260507121456 38 130 0.0 1.0 0.00 0.00 0.00 91 1012.9
20260507120953 37 106 2.0 2.0 0.00 0.00 0.00 96 1012.9
20260507120449 36 162 1.0 1.0 0.00 0.00 0.00 97 1012.9
20260507115946 35 187 0.0 0.0 0.00 0.00 0.00 98 1013.1
20260507115442 34 194 0.0 0.0 0.00 0.00 0.00 98 1013.1
20260507114938 33 195 0.0 0.0 0.00 0.00 0.00 98 1013.1
20260507114434 32 200 0.0 0.0 0.00 0.00 0.00 98 1013.1
20260507113932 32 197 0.0 0.0 0.00 0.00 0.00 98 1012.7
20260507113429 32 207 0.0 0.0 0.00 0.00 0.00 98 1012.8
20260507112926 32 179 0.0 0.0 0.00 0.00 0.00 98 1012.9
20260507112424 31 192 0.0 0.0 0.00 0.00 0.00 98 1012.8
20260507111921 30 190 0.0 0.0 0.00 0.00 0.00 98 1012.7
20260507111418 30 199 0.0 0.0 0.00 0.00 0.00 98 1012.5
20260507110914 30 200 0.0 0.0 0.00 0.00 0.00 98 1012.7
20260507110410 29 200 0.0 0.0 0.00 0.00 0.00 97 1012.8
20260507105907 30 198 0.0 0.0 0.00 0.00 0.00 97 1012.6
20260507105404 30 217 0.0 0.0 0.00 0.00 0.00 97 1012.6
20260507104901 30 226 0.0 0.0 0.00 0.00 0.00 97 1012.6
20260507104357 29 221 0.0 0.0 0.00 0.00 0.00 97 1012.4
20260507103853 29 210 0.0 0.0 0.00 0.00 0.00 97 1012.4
20260507103349 29 210 0.0 0.0 0.00 0.00 0.00 97 1012.5
20260507102840 29 214 0.0 0.0 0.00 0.00 0.00 97 1012.4
20260507102337 29 225 0.0 0.0 0.00 0.00 0.00 97 1012.4
20260507101833 29 220 0.0 0.0 0.00 0.00 0.00 97 1012.5
20260507101333 29 214 0.0 0.0 0.00 0.00 0.00 97 1012.2
20260507100831 29 214 0.0 0.0 0.00 0.00 0.00 97 1012.1
20260507100329 30 217 0.0 0.0 0.00 0.00 0.00 97 1012.4
20260507095827 30 255 0.0 0.0 0.00 0.00 0.00 97 1012.3
20260507095323 30 208 0.0 0.0 0.00 0.00 0.00 97 1012.3
20260507094820 30 228 0.0 0.0 0.00 0.00 0.00 96 1012.6
20260507094317 30 236 0.0 0.0 0.00 0.00 0.00 96 1012.3
20260507093814 29 239 0.0 0.0 0.00 0.00 0.00 96 1012.3
20260507093312 29 207 0.0 0.0 0.00 0.00 0.00 96 1012.1
20260507092810 30 207 0.0 0.0 0.00 0.00 0.00 96 1012.2
20260507092307 30 219 0.0 0.0 0.00 0.00 0.00 96 1012.3
20260507091803 30 248 0.0 0.0 0.00 0.00 0.00 96 1012.1
20260507091259 31 256 0.0 0.0 0.00 0.00 0.00 96 1012.3
20260507090759 31 221 0.0 0.0 0.00 0.00 0.00 96 1012.5
20260507090256 31 243 0.0 0.0 0.00 0.00 0.00 96 1012.5
20260507085753 31 284 0.0 0.0 0.00 0.00 0.00 96 1012.1
20260507085250 31 273 0.0 0.0 0.00 0.00 0.00 95 1012.1
20260507084747 31 212 0.0 0.0 0.00 0.00 0.00 95 1012.2
20260507084243 31 208 0.0 0.0 0.00 0.00 0.00 95 1012.4
20260507083741 32 209 0.0 0.0 0.00 0.00 0.00 95 1012.5
20260507083238 32 209 0.0 0.0 0.00 0.00 0.00 95 1012.5
20260507082734 32 11 1.0 1.0 0.00 0.00 0.00 94 1012.5
20260507082229 32 228 0.0 0.0 0.00 0.00 0.00 94 1012.5
20260507081727 33 225 0.0 0.0 0.00 0.00 0.00 94 1012.6
20260507081222 33 235 0.0 0.0 0.00 0.00 0.00 94 1012.4
20260507080719 33 116 0.0 0.0 0.00 0.00 0.00 94 1012.3
20260507080215 33 110 0.0 1.0 0.00 0.00 0.00 94 1012.4
20260507075711 34 161 0.0 0.0 0.00 0.00 0.00 93 1012.3
20260507075208 34 244 0.0 1.0 0.00 0.00 0.00 93 1012.4
20260507074703 34 218 0.0 0.0 0.00 0.00 0.00 93 1012.3
20260507074202 34 9 1.0 1.0 0.00 0.00 0.00 93 1012.4
20260507073658 34 287 1.0 1.0 0.00 0.00 0.00 92 1012.3
20260507073154 35 333 1.0 1.0 0.00 0.00 0.00 92 1012.3
20260507072653 35 344 1.0 2.0 0.00 0.00 0.00 91 1012.2
20260507072150 36 349 2.0 3.0 0.00 0.00 0.00 90 1012.2
20260507071647 36 335 1.0 2.0 0.00 0.00 0.00 89 1012.3
20260507071143 37 344 1.0 1.0 0.00 0.00 0.00 88 1012.4
20260507070641 37 355 1.0 2.0 0.00 0.00 0.00 88 1012.3
20260507070137 38 334 0.0 1.0 0.00 0.00 0.00 88 1012.5
20260507065633 38 358 1.0 1.0 0.00 0.00 0.00 86 1012.2
20260507065131 38 270 1.0 1.0 0.00 0.00 0.00 85 1012.3
20260507064628 39 312 1.0 1.0 0.00 0.00 0.00 82 1012.4
20260507064127 40 284 0.0 1.0 0.00 0.00 0.00 81 1012.2
20260507063624 40 350 1.0 2.0 0.00 0.00 0.00 81 1012.3
20260507063121 40 267 0.0 0.0 0.00 0.00 0.00 80 1012.3
20260507062617 40 234 0.0 0.0 0.00 0.00 0.00 80 1012.3
20260507062115 40 205 0.0 0.0 0.00 0.00 0.00 78 1012.3
20260507061613 41 214 0.0 0.0 0.00 0.00 0.00 78 1012.5
20260507061111 41 216 0.0 0.0 0.00 0.00 0.00 76 1012.5
20260507060609 41 263 0.0 1.0 0.00 0.00 0.00 74 1012.5
20260507060105 41 208 0.0 0.0 0.00 0.00 0.00 72 1012.5
20260507055600 42 232 0.0 0.0 0.00 0.00 0.00 73 1012.8
20260507055056 42 207 0.0 0.0 0.00 0.00 0.00 74 1012.9
20260507054552 42 200 1.0 1.0 0.00 0.00 0.00 74 1012.8
20260507054050 42 265 0.0 1.0 0.00 0.00 0.00 70 1012.7
20260507053548 42 296 1.0 2.0 0.00 0.00 0.00 69 1013.1
20260507053046 42 358 2.0 3.0 0.00 0.00 0.00 71 1012.8
20260507052543 42 301 1.0 2.0 0.00 0.00 0.00 70 1012.9
20260507052040 42 258 1.0 1.0 0.00 0.00 0.00 69 1012.7
20260507051538 43 5 2.0 2.0 0.00 0.00 0.00 68 1012.9
20260507051034 42 331 1.0 2.0 0.00 0.00 0.00 69 1012.9
20260507050531 43 223 0.0 1.0 0.00 0.00 0.00 68 1013.1
20260507050027 43 302 3.0 3.0 0.00 0.00 0.00 68 1012.9
20260507045524 42 334 2.0 2.0 0.00 0.00 0.00 69 1012.8
20260507045021 43 319 3.0 3.0 0.00 0.00 0.00 68 1012.8
20260507044518 43 11 2.0 2.0 0.00 0.00 0.00 68 1012.9
20260507044015 42 327 2.0 2.0 0.00 0.00 0.00 67 1012.9
20260507043511 42 244 0.0 0.0 0.00 0.00 0.00 71 1013.1
20260507043008 41 329 2.0 2.0 0.00 0.00 0.00 77 1012.9
20260507042504 41 220 0.0 0.0 0.00 0.00 0.00 76 1013.2
20260507041959 41 175 1.0 1.0 0.00 0.00 0.00 75 1013.1
20260507041456 41 225 0.0 0.0 0.00 0.00 0.00 78 1012.9
20260507040953 41 199 0.0 0.0 0.00 0.00 0.00 77 1013.2
20260507040449 42 215 0.0 0.0 0.00 0.00 0.00 75 1012.8
20260507035945 42 224 0.0 0.0 0.00 0.68 0.68 74 1012.7
20260507035442 42 210 0.0 0.0 0.00 0.68 0.68 73 1012.8
20260507034939 42 233 1.0 1.0 0.00 0.68 0.68 77 1012.7
20260507034436 42 230 0.0 0.0 0.00 0.68 0.68 76 1012.8
20260507033934 42 175 1.0 1.0 0.00 0.68 0.68 72 1012.7
20260507033431 42 201 0.0 0.0 0.00 0.68 0.68 76 1012.5
20260507032928 42 194 0.0 0.0 0.00 0.68 0.68 72 1013.1
20260507032425 42 206 0.0 0.0 0.00 0.68 0.68 74 1012.8
20260507031921 42 234 1.0 1.0 0.00 0.68 0.68 74 1012.8
20260507031418 42 212 0.0 0.0 0.00 0.68 0.68 72 1012.5
20260507030915 42 259 0.0 0.0 0.00 0.68 0.68 70 1012.7
20260507030412 42 313 1.0 1.0 0.00 0.68 0.68 68 1012.5
20260507025909 42 221 0.0 0.0 0.00 0.68 0.68 71 1012.2
20260507025406 42 224 0.0 0.0 0.00 0.68 0.68 70 1012.2
20260507024904 43 235 0.0 1.0 0.00 0.68 0.68 70 1012.4
20260507024401 43 243 0.0 0.0 0.00 0.68 0.68 65 1012.3
20260507023857 43 228 0.0 0.0 0.00 0.68 0.68 66 1012.6
20260507023354 44 232 0.0 0.0 0.00 0.68 0.68 62 1012.3
20260507022851 44 222 0.0 0.0 0.00 0.68 0.68 62 1012.3
20260507022347 44 300 1.0 2.0 0.00 0.68 0.68 61 1012.2
20260507021843 44 304 2.0 2.0 0.00 0.68 0.68 61 1012.3
20260507021339 44 243 0.0 0.0 0.00 0.68 0.68 64 1012.0
20260507020837 45 353 1.0 1.0 0.00 0.68 0.68 64 1012.0
20260507020333 45 250 0.0 1.0 0.00 0.68 0.68 64 1012.3
20260507015830 45 347 4.0 6.0 0.00 0.68 0.68 59 1012.3
20260507015329 45 315 2.0 2.0 0.00 0.68 0.68 60 1012.5
20260507014825 45 314 2.0 2.0 0.00 0.68 0.68 60 1012.5
20260507014321 45 302 3.0 3.0 0.00 0.68 0.68 65 1012.6
20260507013818 44 301 1.0 1.0 0.00 0.68 0.68 60 1012.5
20260507013315 44 242 1.0 1.0 0.00 0.68 0.68 66 1012.4
20260507012813 45 272 1.0 1.0 0.00 0.68 0.68 66 1012.6
20260507012308 45 242 1.0 1.0 0.00 0.68 0.68 60 1012.6
20260507011806 46 312 2.0 5.0 0.00 0.68 0.68 59 1013.1
20260507011302 46 278 2.0 3.0 0.00 0.68 0.68 58 1012.5
20260507010802 46 333 2.0 2.0 0.00 0.68 0.68 58 1012.6
20260507010258 46 206 1.0 2.0 0.00 0.68 0.68 61 1012.8
20260507005756 46 347 2.0 3.0 0.00 0.68 0.68 58 1012.7
20260507005252 46 7 3.0 5.0 0.00 0.68 0.68 58 1012.5
20260507004749 46 305 2.0 2.0 0.00 0.68 0.68 60 1012.6
20260507004246 46 228 1.0 2.0 0.00 0.68 0.68 60 1012.2
20260507003742 47 352 2.0 3.0 0.00 0.68 0.68 60 1012.4
20260507003238 47 332 1.0 1.0 0.00 0.68 0.68 60 1012.6
20260507002734 47 303 1.0 1.0 0.00 0.68 0.68 60 1012.5
20260507002230 47 330 2.0 3.0 0.00 0.68 0.68 62 1012.5
20260507001727 47 23 3.0 5.0 0.00 0.68 0.68 63 1012.4
20260507001224 47 342 1.0 1.0 0.00 0.68 0.68 63 1012.5
20260507000721 48 358 3.0 3.0 0.00 0.68 0.68 62 1012.3
20260507000216 48 50 2.0 2.0 0.00 0.68 0.68 60 1012.1
20260506235713 48 336 6.0 7.0 0.00 0.68 0.68 59 1012.1
20260506235209 48 304 2.0 2.0 0.00 0.68 0.68 61 1011.7
20260506234706 48 309 3.0 5.0 0.00 0.68 0.68 62 1011.8
20260506234203 48 322 7.0 9.0 0.00 0.68 0.68 64 1011.7
20260506233701 49 266 1.0 3.0 0.00 0.68 0.68 67 1011.5
20260506233157 49 327 6.0 10.0 0.00 0.68 0.68 67 1011.5
20260506232653 49 0 3.0 5.0 0.00 0.68 0.68 68 1011.2
20260506232148 49 319 2.0 2.0 0.00 0.68 0.68 69 1011.2
20260506231646 50 339 7.0 9.0 0.00 0.68 0.68 70 1011.2
20260506231145 50 341 7.0 8.0 0.00 0.68 0.68 72 1010.7
20260506230641 50 314 2.0 3.0 0.00 0.68 0.68 74 1010.8
20260506230138 50 334 4.0 5.0 0.00 0.68 0.68 74 1010.7
20260506225634 50 292 2.0 2.0 0.00 0.68 0.68 75 1011.0
20260506225131 50 233 0.0 1.0 0.00 0.68 0.68 75 1011.0
20260506224628 50 315 3.0 3.0 0.00 0.68 0.68 74 1010.8
20260506224124 50 283 1.0 1.0 0.00 0.68 0.68 75 1011.0
20260506223620 50 335 2.0 2.0 0.00 0.68 0.68 74 1010.6
20260506223116 50 327 1.0 2.0 0.00 0.68 0.68 74 1010.7
20260506222614 50 13 3.0 3.0 0.00 0.68 0.68 74 1010.7
20260506222110 50 190 0.0 0.0 0.00 0.68 0.68 75 1010.6
20260506221608 50 325 2.0 2.0 0.00 0.68 0.68 75 1010.4
20260506221106 50 267 1.0 2.0 0.00 0.68 0.68 76 1011.0
20260506220602 50 226 1.0 1.0 0.00 0.68 0.68 76 1010.4
20260506220057 50 278 1.0 2.0 0.00 0.68 0.68 77 1010.5
20260506215554 50 321 1.0 2.0 0.00 0.68 0.68 76 1010.8
20260506215049 50 269 2.0 3.0 0.00 0.68 0.68 76 1010.5
20260506214547 50 300 3.0 3.0 0.00 0.68 0.68 77 1010.3
20260506214044 50 314 2.0 2.0 0.00 0.68 0.68 77 1010.2
20260506213543 50 94 1.0 2.0 0.00 0.68 0.68 76 1010.1
20260506213039 50 332 3.0 3.0 0.00 0.68 0.68 77 1010.2
20260506212535 50 323 2.0 2.0 0.00 0.68 0.68 77 1010.0
20260506212030 50 235 1.0 1.0 0.00 0.68 0.68 78 1009.9
20260506211527 50 253 1.0 1.0 0.00 0.68 0.68 78 1009.9
20260506211024 50 343 2.0 2.0 0.00 0.68 0.68 79 1009.8
20260506210521 50 9 3.0 3.0 0.00 0.68 0.68 79 1009.7
20260506210017 50 336 4.0 5.0 0.00 0.68 0.68 80 1009.9
20260506205514 50 24 4.0 6.0 0.00 0.68 0.68 82 1009.7
20260506205009 49 23 2.0 2.0 0.00 0.68 0.68 83 1009.8
20260506204508 49 294 3.0 3.0 0.00 0.68 0.68 83 1010.0
20260506204004 50 313 1.0 2.0 0.00 0.68 0.68 83 1009.8
20260506203502 50 323 1.0 1.0 0.00 0.68 0.68 83 1010.0
20260506202958 50 43 3.0 3.0 0.00 0.68 0.68 82 1010.1
20260506202456 50 330 2.0 3.0 0.00 0.68 0.68 82 1009.9
20260506201952 50 301 3.0 3.0 0.00 0.68 0.68 82 1010.0
20260506201450 50 353 4.0 6.0 0.00 0.68 0.68 82 1009.9
20260506200946 50 317 1.0 1.0 0.00 0.68 0.68 83 1009.9
20260506200442 50 277 1.0 1.0 0.00 0.68 0.68 83 1009.9
20260506195933 50 308 3.0 3.0 0.00 0.68 0.68 83 1009.8
20260506195430 50 345 5.0 7.0 0.00 0.68 0.68 83 1009.7
20260506194926 50 14 4.0 5.0 0.00 0.68 0.68 83 1009.5
20260506194424 50 297 4.0 7.0 0.00 0.68 0.68 83 1009.5
20260506193915 50 285 2.0 2.0 0.00 0.68 0.68 83 1009.9
20260506193412 50 333 7.0 9.0 0.00 0.68 0.68 83 1009.4
20260506192908 50 300 8.0 9.0 0.00 0.68 0.68 83 1009.5
20260506192406 50 16 7.0 8.0 0.00 0.68 0.68 85 1009.2
20260506191902 50 33 4.0 7.0 0.00 0.68 0.68 85 1009.3
20260506191358 51 291 3.0 3.0 0.00 0.68 0.68 84 1009.2
20260506190856 51 329 3.0 5.0 0.00 0.68 0.68 84 1009.2
20260506190352 51 0 5.0 9.0 0.00 0.68 0.68 83 1008.9
20260506185849 51 328 4.0 5.0 0.00 0.68 0.68 84 1009.2
20260506185345 51 279 4.0 6.0 0.00 0.68 0.68 84 1009.0
20260506184843 51 306 5.0 7.0 0.00 0.68 0.68 84 1009.1
20260506184340 51 283 4.0 5.0 0.00 0.68 0.68 84 1009.1
20260506183837 51 338 2.0 3.0 0.00 0.68 0.68 84 1009.2
20260506183333 51 297 3.0 5.0 0.00 0.68 0.68 84 1009.1
20260506182830 52 117 4.0 6.0 0.00 0.68 0.68 83 1009.1
20260506182327 53 340 5.0 6.0 0.00 0.68 0.68 83 1008.7
20260506181825 53 347 3.0 3.0 0.00 0.68 0.68 83 1008.7
20260506181323 52 297 1.0 1.0 0.00 0.68 0.68 85 1009.0
20260506180820 51 349 6.0 7.0 0.00 0.68 0.68 86 1009.0
20260506180315 52 323 5.0 7.0 0.00 0.68 0.68 85 1008.9
20260506175812 52 14 2.0 3.0 0.00 0.68 0.68 85 1008.5
20260506175309 52 345 6.0 8.0 0.00 0.68 0.68 85 1008.7
20260506174806 51 340 7.0 10.0 0.00 0.68 0.68 87 1009.0